Location: ??????
(38.1303°N, 24.0039°E)
Time: 06:36:58
(UTC+00:00)

Cosmos 1656 - Pass Details

Date: 20 June 2021
Orbit: 797 x 850 km, 71.1° (Epoch: 30 July)

Event Time Altitude Azimuth Distance (km) Brightness Sun altitude
Rises 01:59:50 0° 336° (NNW) 3,422 7.1 -10.5°
Reaches altitude 10° 02:02:17 10° 336° (NNW) 2,483 6.4 -10.2°
Maximum altitude 02:08:01 83° 249° (WSW) 859 3.7 -9.3°
Drops below altitude 10° 02:13:40 10° 163° (SSE) 2,454 5.9 -8.5°
Sets 02:16:05 0° 162° (SSE) 3,380 6.6 -8.1°
